OBJECT SY

Last updated on Mon Jan 24 2022 00:02:05 GMT+0000 (Coordinated Universal Time)

1 51277U 98067SY 22023.48144337 .00082932 00000+0 14253-2 0 9995 2 51277 51.6440 333.1896 0005585 50.6151 309.2999 15.50392218 779

Satellite not in orbit